[Iaude] MPEC G203: 2024 GQ5 [a=1.43,e=0.28,i=34.9,H=23.9]

mpec at cfa.harvard.edu mpec at cfa.harvard.edu
Sun Apr 14 11:07:23 EDT 2024


M.P.E.C. 2024-G203                               Issued 2024 April 14, 15:05 UT

     The Minor Planet Electronic Circulars contain information on unusual
         minor planets, routine data on comets and natural satellites,
         and occasional editorial announcements.  They are published
    on behalf of Division F of the International Astronomical Union by the
          Minor Planet Center, Smithsonian Astrophysical Observatory,
                          Cambridge, MA 02138, U.S.A.
			  
             Prepared using the Tamkin Foundation Computer Network

                              MPC at CFA.HARVARD.EDU
            URL https://www.minorplanetcenter.net/    ISSN 1523-6714

                                    2024 GQ5                                    


Observations:
     K24G05Q*1C2024 04 12.32670112 51 20.311+02 08 30.08         20.69GVEG203G96
     K24G05Q 1C2024 04 12.33188412 51 20.293+02 09 31.03         21.04GVEG203G96
     K24G05Q 1C2024 04 12.33709412 51 20.250+02 10 33.82         20.67GVEG203G96
     K24G05Q 1C2024 04 12.34229512 51 20.214+02 11 35.52         20.59GVEG203G96
     K24G05Q  C2024 04 12.37327212 51 19.896+02 17 40.48         20.7 GVEG203H01
     K24G05Q  C2024 04 12.37694612 51 19.888+02 18 24.11         20.6 GVEG203H01
     K24G05Q  C2024 04 12.38695812 51 19.831+02 20 22.59         21.2 GVEG203H01
     K24G05Q  C2024 04 12.39496612 51 19.808+02 21 57.46         20.9 GVEG203H01
     K24G05Q KC2024 04 12.41872212 51 19.810+02 26 39.80               VEG203I52
     K24G05Q KC2024 04 12.42034912 51 19.820+02 26 59.80         21.57GVEG203I52
     K24G05Q 1C2024 04 12.91069 12 51 26.90 +04 04 05.8          21.7 VXEG203033
     K24G05Q 1C2024 04 12.91202 12 51 26.88 +04 04 21.7          21.8 VXEG203033
     K24G05Q 1C2024 04 12.91335 12 51 26.89 +04 04 37.2          21.2 VXEG203033
     K24G05Q 1C2024 04 12.91467 12 51 26.82 +04 04 53.2          21.1 VXEG203033
     K24G05Q KB2024 04 13.02071412 51 26.95 +04 26 04.1          20.3 GXEG203I93
     K24G05Q KB2024 04 13.03173412 51 26.90 +04 28 16.3          20.6 GXEG203I93
     K24G05Q KB2024 04 13.04257312 51 26.86 +04 30 25.8          20.3 GXEG203I93
     K24G05Q KC2024 04 13.16727412 51 29.82 +04 55 22.3          20.8 GVEG203H21
     K24G05Q KC2024 04 13.17286612 51 29.84 +04 56 29.3          21.0 GVEG203H21
     K24G05Q KC2024 04 13.45847712 51 29.610+05 53 39.50               VEG203I52
     K24G05Q KC2024 04 13.46858812 51 29.660+05 55 40.00         22.28GVEG203I52
     K24G05Q KC2024 04 13.47553412 51 29.680+05 57 03.60         23.01GVEG203I52
     K24G05Q KC2024 04 14.29112612 51 41.368+08 40 54.84         21.22GVEG203I52
     K24G05Q KC2024 04 14.29320912 51 41.317+08 41 20.54         21.60GVEG203I52
     K24G05Q KC2024 04 14.29528512 51 41.339+08 41 44.95         21.29GVEG203I52

Observer details:
033 Karl Schwarzschild Observatory, Tautenburg.  Observers S. Melnikov, C.
    Hogner, F. Ludwig, M. Hartmann, B. Stecklum.  Measurer B. Stecklum.
    1.34-m f/3 Schmidt + CCD.
G96 Mt. Lemmon Survey.  Observer H. Groeller.  Measurers T. Beuden, V. F.
    Carvajal, D. Fay, J. B. Fazekas, D. C. Fuls, A. R. Gibbs, A. D. Grauer, H.
    Groeller, J. K. Hogan, R. A. Kowalski, S. M. Larson, G. J. Leonard, D.
    Rankin, R. L. Seaman, F. C. Shelly, K. W. Wierzchos.  1.5-m reflector +
    10K CCD.
H01 Magdalena Ridge Observatory, Socorro.  Observers W. H. Ryan, E. V. Ryan.
    Measurer W. H. Ryan.  2.4-m f/8.9 Ritchey-Chretien + CCD.
H21 Astronomical Research Observatory, Westfield.  Observer R. Holmes.
    Measurers T. Linder, R. Holmes, L. Horn.  0.76-m f/3.0 astrograph + CCD.
I52 Steward Observatory, Mt. Lemmon Station.  Observers V. F. Carvajal, D.
    Rankin.  Measurers T. Beuden, V. F. Carvajal, D. Fay, J. B. Fazekas, D. C.
    Fuls, A. R. Gibbs, A. D. Grauer, H. Groeller, J. K. Hogan, R. A. Kowalski,
    S. M. Larson, G. J. Leonard, D. Rankin, R. L. Seaman, F. C. Shelly, K. W.
    Wierzchos.  1.0-m prime focus + CCD.
I93 St Pardon de Conques.  Observer F. Losse.  0.40-m f/3.7 reflector + CCD.

Orbital elements:
2024 GQ5                                                 Earth MOID = 0.1739 AU
Epoch 2024 Mar. 31.0 TT = JDT 2460400.5                 Veres                   
M 314.02209              (2000.0)            P               Q                  
n   0.57644592     Peri.   66.79731     -0.12415758     +0.97420543             
a   1.4298715      Node   199.20897     -0.98110368     -0.09212675             
e   0.2757154      Incl.   34.94102     +0.14839293     +0.20600106             
P   1.71           H   23.95          G   0.15           U   9                  
Residuals in seconds of arc
240412 G96  0.1-  0.2-    240412 I52  0.0   0.3+    240413 H21 (0.7+  0.2+)
240412 G96  0.2+  0.6-    240412 033  0.5+  0.9+    240413 I52  0.1-  0.2-
240412 G96  0.1+  0.5+    240412 033  0.3+  0.9+    240413 I52  0.1+  1.0-
240412 G96  0.1+  0.6+    240412 033  0.5+  0.5+    240413 I52  0.0   0.7-
240412 H01  0.0   0.1-    240412 033  0.5-  0.7+    240414 I52  0.2+  0.1-
240412 H01  0.1+  0.0     240413 I93  0.6+  0.1+    240414 I52  0.4-  0.5+
240412 H01  0.1-  0.1-    240413 I93  0.5+  0.5+    240414 I52  0.1+  0.2-
240412 H01  0.0   0.1-    240413 I93  0.4+  0.4+
240412 I52  0.3-  0.4-    240413 H21  0.0   0.3+

Ephemeris:
2024 GQ5                 a,e,i = 1.43, 0.28, 35                  q = 1.0356
Date    TT    R. A. (2000) Decl.     Delta      r    Elong.  Phase     V
2024 03 15    12 47 44.1 -45 19 32   0.4074  1.2954   130.2    35.9    24.0
...
2024 03 30    12 50 27.0 -31 06 06   0.2594  1.2344   152.4    22.0    22.5
...
2024 04 07    12 50 50.4 -14 01 14   0.2036  1.2030   172.1     6.6    21.4
...
2024 04 13    12 51 27.3 +04 22 18   0.1835  1.1802   164.1    13.5    21.4
2024 04 14    12 51 38.1 +07 42 33   0.1825  1.1765   160.5    16.6    21.5
2024 04 15    12 51 50.6 +11 03 39   0.1821  1.1728   156.8    19.7    21.6
...
2024 04 21    12 53 50.4 +30 03 10   0.1940  1.1514   135.5    37.7    22.2
...
2024 04 29    12 59 00.8 +48 37 14   0.2369  1.1246   114.1    54.9    23.1
...
2024 05 14    13 18 24.3 +65 53 40   0.3486  1.0819    92.2    69.0    24.3

M. P. C. Staff               (C) Copyright 2024 MPC           M.P.E.C. 2024-G203





More information about the Iaude mailing list